OpenBCM V1.13 (Linux)

Packet Radio Mailbox

DB0FHN

[JN59NK Nuernberg]

 Login: GUEST





  
UA9FBV > KEPS     08.03.03 10:38l 276 Lines 7261 Bytes #999 (0) @ AMSAT
BID : ORB03065.D
Read: DB0FHN GUEST
Subj: Orbital Elements  03065.MICROS
Path: DB0FHN<DB0RGB<OK0PPL<RZ6HXA<UA9FBV
Sent: 030307/0453Z @:UA9FBV.PRM.RUS.AS #:30645 [Perm] FBB7.00i $:ORB03065.D
From: UA9FBV@UA9FBV.PRM.RUS.AS
To  : KEPS@AMSAT

HR AMSAT ORBITAL ELEMENTS FOR THE MICROSATS
FROM WA5QGD FORT WORTH,TX March 6, 2003
SEND SUBSCRIBE/UNSUBSCRIBE TO majordomo@amsat.org ONLY
BID: ORB03065.D
TO ALL RADIO AMATEURS BT

Satellite: UO-14
Catalog number: 20437
Epoch time:      03065.15854009
Element set:     179
Inclination:       98.2686 deg
RA of node:       108.0247 deg
Eccentricity:    0.0010873
Arg of perigee:   150.8307 deg
Mean anomaly:     209.3486 deg
Mean motion:   14.31242362 rev/day
Decay rate:       1.06e-06 rev/day^2
Epoch rev:           68472
Checksum:              292

Satellite: AO-16
Catalog number: 20439
Epoch time:      03064.68159508
Element set:     860
Inclination:       98.3144 deg
RA of node:       119.3435 deg
Eccentricity:    0.0011165
Arg of perigee:   159.2957 deg
Mean anomaly:     200.8705 deg
Mean motion:   14.31477311 rev/day
Decay rate:       1.54e-06 rev/day^2
Epoch rev:           68469
Checksum:              308

Satellite: WO-18
Catalog number: 20441
Epoch time:      03065.84972995
Element set:      27
Inclination:       98.3306 deg
RA of node:       123.5928 deg
Eccentricity:    0.0011920
Arg of perigee:   155.6562 deg
Mean anomaly:     204.5187 deg
Mean motion:   14.31559244 rev/day
Decay rate:       1.51e-06 rev/day^2
Epoch rev:           68491
Checksum:              308

Satellite: LO-19
Catalog number: 20442
Epoch time:      03065.68652224
Element set:     978
Inclination:       98.3442 deg
RA of node:       126.4894 deg
Eccentricity:    0.0011895
Arg of perigee:   155.3055 deg
Mean anomaly:     204.8700 deg
Mean motion:   14.31722566 rev/day
Decay rate:       1.53e-06 rev/day^2
Epoch rev:           68494
Checksum:              315

Satellite: UO-22
Catalog number: 21575
Epoch time:      03065.15105592
Element set:     741
Inclination:       98.1422 deg
RA of node:        56.4883 deg
Eccentricity:    0.0008580
Arg of perigee:    85.5288 deg
Mean anomaly:     274.6882 deg
Mean motion:   14.39164150 rev/day
Decay rate:       2.70e-06 rev/day^2
Epoch rev:           61052
Checksum:              299

Satellite: KO-23
Catalog number: 22077
Epoch time:      03065.42732833
Element set:     159
Inclination:       66.0861 deg
RA of node:        92.5178 deg
Eccentricity:    0.0015762
Arg of perigee:   270.1881 deg
Mean anomaly:      89.7331 deg
Mean motion:   12.86408987 rev/day
Decay rate:       -3.7e-07 rev/day^2
Epoch rev:           49634
Checksum:              323

Satellite: AO-27
Catalog number: 22825
Epoch time:      03064.94730996
Element set:    0503
Inclination:      098.2741 deg
RA of node:       093.8603 deg
Eccentricity:    0.0007682
Arg of perigee:   209.3370 deg
Mean anomaly:     150.7383 deg
Mean motion:   14.28947765 rev/day
Decay rate:       1.20e-06 rev/day^2
Epoch rev:           49207
Checksum:              318

Satellite: IO-26
Catalog number: 22826
Epoch time:      03064.62513204
Element set:    0336
Inclination:      098.2710 deg
RA of node:       094.6739 deg
Eccentricity:    0.0008061
Arg of perigee:   212.3256 deg
Mean anomaly:     147.7435 deg
Mean motion:   14.29171369 rev/day
Decay rate:       1.44e-06 rev/day^2
Epoch rev:           49207
Checksum:              292

Satellite: KO-25
Catalog number: 22828
Epoch time:      03065.65178026
Element set:     441
Inclination:       98.2706 deg
RA of node:        95.9156 deg
Eccentricity:    0.0009424
Arg of perigee:   185.3560 deg
Mean anomaly:     174.7523 deg
Mean motion:   14.29512808 rev/day
Decay rate:       1.18e-06 rev/day^2
Epoch rev:           46042
Checksum:              306

Satellite: TO-31
Catalog number: 25396
Epoch time:      03064.92899752
Element set:    0831
Inclination:      098.6237 deg
RA of node:       141.7299 deg
Eccentricity:    0.0003703
Arg of perigee:   092.2338 deg
Mean anomaly:     267.9267 deg
Mean motion:   14.23515350 rev/day
Decay rate:       -4.3e-07 rev/day^2
Epoch rev:           24171
Checksum:              315

Satellite: GO-32
Catalog number: 25397
Epoch time:      03064.95678976
Element set:    0181
Inclination:      098.6197 deg
RA of node:       140.6211 deg
Eccentricity:    0.0002154
Arg of perigee:   094.8506 deg
Mean anomaly:     265.2918 deg
Mean motion:   14.22962751 rev/day
Decay rate:        5.3e-07 rev/day^2
Epoch rev:           24168
Checksum:              322

Satellite: UO-36
Catalog number: 25693
Epoch time:      03065.80677625
Element set:     763
Inclination:       64.5615 deg
RA of node:       321.0866 deg
Eccentricity:    0.0021590
Arg of perigee:   314.7765 deg
Mean anomaly:      45.1585 deg
Mean motion:   14.76408954 rev/day
Decay rate:       7.75e-06 rev/day^2
Epoch rev:           20865
Checksum:              334

Satellite: AO-37
Catalog number: 26065
Epoch time:      03065.89150479
Element set:     749
Inclination:      100.2092 deg
RA of node:       123.5842 deg
Eccentricity:    0.0036942
Arg of perigee:   241.6405 deg
Mean anomaly:     118.1047 deg
Mean motion:   14.35515489 rev/day
Decay rate:       1.66e-06 rev/day^2
Epoch rev:           16272
Checksum:              299

Satellite: SO-41
Catalog number: 26545
Epoch time:      03064.89480748
Element set:    0421
Inclination:      064.5615 deg
RA of node:       344.8182 deg
Eccentricity:    0.0051148
Arg of perigee:   236.1858 deg
Mean anomaly:     123.4373 deg
Mean motion:   14.79019562 rev/day
Decay rate:      1.393e-05 rev/day^2
Epoch rev:           13149
Checksum:              314

Satellite: MO-46
Catalog number: 26548
Epoch time:      03064.82607539
Element set:    0425
Inclination:      064.5598 deg
RA of node:       337.7489 deg
Eccentricity:    0.0044402
Arg of perigee:   235.5584 deg
Mean anomaly:     124.1373 deg
Mean motion:   14.81320427 rev/day
Decay rate:      1.963e-05 rev/day^2
Epoch rev:           13163
Checksum:              318

Satellite: SO-42
Catalog number: 26549
Epoch time:      03065.88921692
Element set:     709
Inclination:       64.5509 deg
RA of node:       345.9564 deg
Eccentricity:    0.0055533
Arg of perigee:   235.9726 deg
Mean anomaly:     123.6106 deg
Mean motion:   14.77957191 rev/day
Decay rate:      1.307e-05 rev/day^2
Epoch rev:           13155
Checksum:              332

Satellite: NO-44
Catalog number: 26931
Epoch time:      03065.20162605
Element set:     417
Inclination:       67.0464 deg
RA of node:       215.3661 deg
Eccentricity:    0.0005176
Arg of perigee:   270.0202 deg
Mean anomaly:      90.0312 deg
Mean motion:   14.29122809 rev/day
Decay rate:       2.05e-06 rev/day^2
Epoch rev:            7458
Checksum:              254

Satellite: AO-49
Catalog number: 27605
Epoch time:      03065.34835316
Element set:      75
Inclination:       64.5522 deg
RA of node:       149.3219 deg
Eccentricity:    0.0035588
Arg of perigee:   107.0096 deg
Mean anomaly:     253.4909 deg
Mean motion:   14.71394614 rev/day
Decay rate:       6.76e-06 rev/day^2
Epoch rev:            1113
Checksum:              304

Satellite: SO-50
Catalog number: 27607
Epoch time:      03065.35854066
Element set:      68
Inclination:       64.5511 deg
RA of node:       149.8428 deg
Eccentricity:    0.0036515
Arg of perigee:   102.4741 deg
Mean anomaly:     258.0454 deg
Mean motion:   14.69936783 rev/day
Decay rate:      1.042e-05 rev/day^2
Epoch rev:            1112
Checksum:              294



Read previous mail | Read next mail


 14.09.2026 02:29:22lGo back Go up